FW4079 Weather Reports


time (UTC)temp
F
wind
direction
speed
knots
gust
knots
rain 1hr
in
rain 24hr
in
rain mn
in
humidity
%
barometer
mb
20260504190015 62 270 2.6 7.0 0.00 0.00 0.00 38 1011.2
20260504185535 61 293 3.5 8.7 0.00 0.00 0.00 39 1011.3
20260504185035 61 270 0.9 3.5 0.00 0.00 0.00 39 1011.5
20260504184515 62 23 2.6 6.1 0.00 0.00 0.00 38 1011.7
20260504184016 63 23 5.2 10.4 0.00 0.00 0.00 36 1011.8
20260504183515 64 45 5.2 13.0 0.00 0.00 0.00 40 1011.8
20260504183015 64 68 6.1 13.0 0.00 0.00 0.00 39 1011.8
20260504182515 64 68 4.3 11.3 0.00 0.00 0.00 40 1011.9
20260504182035 64 293 6.1 10.4 0.00 0.00 0.00 40 1012.0
20260504181515 64 225 5.2 9.6 0.00 0.00 0.00 38 1012.2
20260504181015 62 180 5.2 10.4 0.00 0.00 0.00 35 1012.2
20260504180516 63 180 4.3 11.3 0.00 0.00 0.00 41 1012.1
20260504180015 62 203 4.3 8.7 0.00 0.00 0.00 41 1012.3
20260504175515 63 270 5.2 12.2 0.00 0.00 0.00 38 1012.3
20260504175015 62 225 5.2 9.6 0.00 0.00 0.00 39 1012.5
20260504174515 61 225 3.5 7.8 0.00 0.00 0.00 41 1012.5
20260504174015 61 180 2.6 7.8 0.00 0.00 0.00 38 1012.6
20260504173516 62 248 2.6 6.1 0.00 0.00 0.00 43 1012.7
20260504173015 61 135 2.6 7.0 0.00 0.00 0.00 42 1012.8
20260504172535 61 180 1.7 4.3 0.00 0.00 0.00 37 1012.9
20260504172015 61 203 2.6 4.3 0.00 0.00 0.00 41 1013.0
20260504171515 61 113 0.9 4.3 0.00 0.00 0.00 44 1013.0
20260504171035 60 113 1.7 5.2 0.00 0.00 0.00 43 1013.2
20260504170516 59 113 1.7 5.2 0.00 0.00 0.00 42 1013.1
20260504151015 47 0.0 2.6 0.00 0.00 0.00 55 1013.8
20260504150515 47 0.0 1.7 0.00 0.00 0.00 56 1013.9
20260504141037 38 0.0 0.0 0.00 0.00 0.00 70 1014.1
20260504140517 37 0.0 0.0 0.00 0.00 0.00 72 1014.1
20260504130537 31 0.0 0.0 0.00 0.00 0.00 79 1014.2
20260504110536 31 45 2.6 4.3 0.00 0.00 0.00 78 1013.5
20260504100536 30 0.0 0.0 0.00 0.00 0.00 77 1013.0
20260504081516 32 0.0 0.0 0.00 0.00 0.00 71 1013.4
20260504081016 32 0.0 0.0 0.00 0.00 0.00 70 1013.4
20260504080517 32 0.0 0.0 0.00 0.00 0.00 71 1013.5
20260504050516 40 0.0 0.0 0.00 0.00 0.00 53 1014.1
20260504045516 41 0.0 0.9 0.00 0.00 0.00 52 1014.1
20260504045017 41 0.0 0.0 0.00 0.00 0.00 52 1014.2
20260504044516 42 0.0 0.9 0.00 0.00 0.00 51 1014.2
20260504044016 42 0.0 0.0 0.00 0.00 0.00 50 1014.3
20260504043516 42 0.0 0.0 0.00 0.00 0.00 49 1014.3
20260504043017 42 0.0 0.0 0.00 0.00 0.00 48 1014.2
20260504042537 43 45 1.7 3.5 0.00 0.00 0.00 48 1014.3
20260504042016 43 45 1.7 4.3 0.00 0.00 0.00 48 1014.2
20260504041516 43 0.0 0.0 0.00 0.00 0.00 47 1014.2
20260504041016 43 0.0 0.0 0.00 0.00 0.00 48 1014.3
20260504040536 43 0.0 0.0 0.00 0.00 0.00 48 1014.2
20260504040016 44 0.0 0.0 0.00 0.00 0.00 48 1014.3
20260504035516 44 0.0 0.0 0.00 0.00 0.00 46 1014.3
20260504035016 45 0.0 0.0 0.00 0.00 0.00 47 1014.2
20260504034516 45 0.0 0.0 0.00 0.00 0.00 45 1014.2
20260504034037 45 0.0 0.9 0.00 0.00 0.00 44 1014.2
20260504033516 46 270 0.9 2.6 0.00 0.00 0.00 43 1014.2
20260504033016 47 0.0 0.9 0.00 0.00 0.00 43 1014.2
20260504032516 47 0.0 0.0 0.00 0.00 0.00 42 1014.2
20260504032016 48 0.0 0.0 0.00 0.00 0.00 42 1014.2
20260504031516 49 0.0 0.0 0.00 0.00 0.00 41 1014.2
20260504031016 49 0.0 0.0 0.00 0.00 0.00 40 1014.1
20260504030517 50 0.0 0.0 0.00 0.00 0.00 38 1014.0
20260504030016 50 0.0 0.0 0.00 0.00 0.00 37 1014.0
20260504025516 51 0.0 0.0 0.00 0.00 0.00 36 1013.9
20260504025016 52 0.0 0.0 0.00 0.00 0.00 35 1013.9
20260504024516 52 0.0 0.0 0.00 0.00 0.00 32 1013.8
20260504024036 53 0.0 0.0 0.00 0.00 0.00 32 1013.8
20260504023537 53 0.0 0.0 0.00 0.00 0.00 32 1013.6
20260504023016 54 0.0 0.0 0.00 0.00 0.00 30 1013.7
20260504022516 55 0.0 0.0 0.00 0.00 0.00 28 1013.7
20260504022017 55 0.0 0.0 0.00 0.00 0.00 28 1013.6
20260504021516 56 0.0 0.9 0.00 0.00 0.00 27 1013.6
20260504021016 56 0.0 0.9 0.00 0.00 0.00 27 1013.5
20260504020516 56 270 0.9 1.7 0.00 0.00 0.00 26 1013.5
20260504020036 57 270 1.7 3.5 0.00 0.00 0.00 25 1013.6
20260504015516 57 270 1.7 5.2 0.00 0.00 0.00 26 1013.5
20260504015016 58 0.0 0.9 0.00 0.00 0.00 25 1013.5
20260504014516 58 270 0.9 3.5 0.00 0.00 0.00 25 1013.5
20260504014017 59 270 1.7 3.5 0.00 0.00 0.00 25 1013.5
20260504013516 59 248 1.7 3.5 0.00 0.00 0.00 24 1013.5
20260504013016 60 270 2.6 6.1 0.00 0.00 0.00 23 1013.4
20260504012516 60 270 2.6 5.2 0.00 0.00 0.00 22 1013.5
20260504012016 60 270 3.5 7.0 0.00 0.00 0.00 22 1013.5
20260504011536 61 270 4.3 7.0 0.00 0.00 0.00 21 1013.5
20260504011016 62 270 4.3 6.1 0.00 0.00 0.00 22 1013.5
20260504010516 62 270 3.5 7.0 0.00 0.00 0.00 22 1013.5
20260504010016 63 270 3.5 7.0 0.00 0.00 0.00 21 1013.6
20260504005516 63 270 3.5 7.8 0.00 0.00 0.00 22 1013.5
20260504005016 63 270 4.3 7.0 0.00 0.00 0.00 22 1013.5
20260504004516 63 270 4.3 7.8 0.00 0.00 0.00 22 1013.6
20260504004036 64 270 4.3 8.7 0.00 0.00 0.00 20 1013.6
20260504003516 64 270 4.3 10.4 0.00 0.00 0.00 19 1013.5
20260504003017 64 270 5.2 12.2 0.00 0.00 0.00 18 1013.7
20260504002516 65 270 5.2 9.6 0.00 0.00 0.00 20 1013.7
20260504002016 65 270 4.3 8.7 0.00 0.00 0.00 18 1013.7
20260504001557 65 270 5.2 9.6 0.00 0.00 0.00 18 1013.7
20260504001016 65 270 5.2 10.4 0.00 0.00 0.00 19 1013.7
20260504000516 66 270 5.2 10.4 0.00 0.00 0.00 18 1013.8
20260504000016 66 270 7.8 14.8 0.00 0.00 0.00 16 1013.8
20260503235536 67 270 6.1 11.3 0.00 0.00 0.00 18 1013.8
20260503235016 67 270 7.0 13.9 0.00 0.00 0.00 18 1013.8
20260503234516 67 270 8.7 19.1 0.00 0.00 0.00 17 1013.8
20260503234016 66 270 6.1 13.9 0.00 0.00 0.00 16 1013.8
20260503233516 66 270 5.2 11.3 0.00 0.00 0.00 16 1013.8
20260503233016 67 270 7.0 13.0 0.00 0.00 0.00 16 1014.0
20260503232516 67 248 5.2 13.9 0.00 0.00 0.00 18 1013.9
20260503232017 68 270 6.1 15.6 0.00 0.00 0.00 18 1013.9
20260503231516 68 225 5.2 12.2 0.00 0.00 0.00 18 1013.9
20260503231017 68 248 5.2 13.0 0.00 0.00 0.00 18 1014.0
20260503230516 68 248 6.1 14.8 0.00 0.00 0.00 18 1014.0
20260503230016 68 270 8.7 13.9 0.00 0.00 0.00 18 1014.0
20260503225516 68 270 6.1 20.0 0.00 0.00 0.00 17 1014.0
20260503225016 68 270 7.8 15.6 0.00 0.00 0.00 17 1014.0
20260503224515 69 270 5.2 12.2 0.00 0.00 0.00 19 1014.1
20260503224016 68 270 8.7 14.8 0.00 0.00 0.00 19 1014.1
20260503223536 69 270 7.0 14.8 0.00 0.00 0.00 18 1014.0
20260503223016 69 293 10.4 18.2 0.00 0.00 0.00 18 1014.2
20260503222516 69 270 8.7 17.4 0.00 0.00 0.00 21 1014.2
20260503222016 70 270 10.4 17.4 0.00 0.00 0.00 18 1014.3
20260503221515 70 270 13.0 20.0 0.00 0.00 0.00 19 1014.4
20260503221015 70 270 7.0 13.9 0.00 0.00 0.00 22 1014.5
20260503220536 69 270 5.2 12.2 0.00 0.00 0.00 19 1014.5
20260503220016 69 270 8.7 20.9 0.00 0.00 0.00 19 1014.6
20260503215515 69 270 10.4 22.6 0.00 0.00 0.00 20 1014.6
20260503215015 70 270 8.7 17.4 0.00 0.00 0.00 19 1014.8
20260503214515 69 270 9.6 14.8 0.00 0.00 0.00 22 1014.7
20260503214016 70 270 7.8 18.2 0.00 0.00 0.00 20 1014.9
20260503213515 70 270 7.0 14.8 0.00 0.00 0.00 21 1015.0
20260503213015 70 270 8.7 16.5 0.00 0.00 0.00 21 1015.0
20260503212516 70 270 7.8 13.0 0.00 0.00 0.00 23 1015.1
20260503212015 70 270 8.7 16.5 0.00 0.00 0.00 21 1015.2
20260503211516 69 225 7.0 13.0 0.00 0.00 0.00 22 1015.1
20260503211015 69 270 6.1 15.6 0.00 0.00 0.00 21 1015.2
20260503210516 69 270 8.7 13.0 0.00 0.00 0.00 22 1015.2
20260503210015 69 248 6.1 11.3 0.00 0.00 0.00 21 1015.2
20260503205515 69 270 11.3 17.4 0.00 0.00 0.00 23 1015.3
20260503205035 69 270 7.0 17.4 0.00 0.00 0.00 22 1015.4
20260503204515 69 270 7.8 14.8 0.00 0.00 0.00 22 1015.4
20260503204015 69 270 11.3 20.9 0.00 0.00 0.00 22 1015.6
20260503203515 68 248 4.3 10.4 0.00 0.00 0.00 22 1015.5
20260503203036 69 225 6.1 14.8 0.00 0.00 0.00 20 1015.6
20260503202515 69 293 10.4 20.9 0.00 0.00 0.00 24 1016.1
20260503202036 68 270 12.2 20.0 0.00 0.00 0.00 21 1016.0
20260503201516 69 270 10.4 18.2 0.00 0.00 0.00 20 1016.1
20260503201015 69 270 10.4 17.4 0.00 0.00 0.00 20 1016.2
20260503200535 69 270 9.6 15.6 0.00 0.00 0.00 24 1016.1
20260503200015 69 270 11.3 20.9 0.00 0.00 0.00 21 1016.2
20260503195516 69 270 10.4 18.2 0.00 0.00 0.00 21 1016.1
20260503195016 70 293 10.4 18.2 0.00 0.00 0.00 23 1016.2
20260503194515 69 270 8.7 15.6 0.00 0.00 0.00 21 1016.3
20260503194015 69 293 10.4 15.6 0.00 0.00 0.00 23 1016.4
20260503193516 69 270 9.6 15.6 0.00 0.00 0.00 23 1016.5
20260503193015 69 270 10.4 20.9 0.00 0.00 0.00 22 1016.6
20260503192515 69 293 7.8 18.2 0.00 0.00 0.00 25 1016.6
20260503192015 68 293 10.4 18.2 0.00 0.00 0.00 25 1016.6
20260503191515 68 270 8.7 13.9 0.00 0.00 0.00 26 1016.8
20260503191015 68 248 7.8 14.8 0.00 0.00 0.00 25 1016.8
20260503190515 67 293 7.0 12.2 0.00 0.00 0.00 26 1016.8